This is the latest recevied weather packets stored in our database for station/object K3JSE-4. If no packets are shown the sender has not sent any weather packets the latest 10 day(s).
| Time | Temp. | Humidity | Pressure | Rain* | Wind** | Luminosity | Snow |
|---|---|---|---|---|---|---|---|
| 1777484144 | 14.44° C | 56% | 1013.7 hPa | 0 mm | - | - | - |
| 1777483844 | 15° C | 56% | 1013.7 hPa | 0 mm | - | - | - |
| 1777483544 | 15° C | 56% | 1013.7 hPa | 0 mm | - | - | - |
| 1777483244 | 14.44° C | 55% | 1013.8 hPa | 0 mm | - | - | - |
| 1777482944 | 14.44° C | 56% | 1014 hPa | 0 mm | - | - | - |
| 1777482644 | 15° C | 53% | 1014 hPa | 0 mm | - | - | - |
| 1777482343 | 15° C | 53% | 1014.1 hPa | 0 mm | - | - | - |
| 1777482044 | 15° C | 54% | 1014.2 hPa | 0 mm | - | - | - |
| 1777481744 | 15° C | 56% | 1014.2 hPa | 0 mm | - | - | - |
| 1777481444 | 15° C | 53% | 1014.3 hPa | 0 mm | - | - | - |
| 1777481144 | 15° C | 53% | 1014.4 hPa | 0 mm | - | - | - |
| 1777480843 | 15° C | 55% | 1014.5 hPa | 0 mm | - | - | - |
| 1777480543 | 15° C | 52% | 1014.5 hPa | 0 mm | - | - | - |
| 1777480243 | 15° C | 51% | 1014.5 hPa | 0 mm | - | - | - |
| 1777479943 | 15° C | 52% | 1014.5 hPa | 0 mm | - | - | - |
| 1777479643 | 15° C | 50% | 1014.6 hPa | 0 mm | - | - | - |
| 1777479343 | 15° C | 49% | 1014.6 hPa | 0 mm | - | - | - |
| 1777479043 | 15° C | 52% | 1014.6 hPa | 0 mm | - | - | - |
| 1777478743 | 15° C | 51% | 1014.6 hPa | 0 mm | - | - | - |
| 1777478443 | 15° C | 51% | 1014.7 hPa | 0 mm | - | - | - |
| 1777478143 | 15° C | 51% | 1014.6 hPa | 0 mm | - | - | - |
| 1777477843 | 15° C | 50% | 1014.6 hPa | 0 mm | - | - | - |
| 1777477543 | 14.44° C | 52% | 1014.7 hPa | 0 mm | - | - | - |
| 1777477243 | 14.44° C | 53% | 1014.9 hPa | 0 mm | - | - | - |
| 1777476943 | 13.89° C | 54% | 1014.9 hPa | 0 mm | - | - | - |
* Rain latest hour (hover to see other rain measurements)
** Current wind speed in m/s (hover to see current wind gust speed)